Location: Chilton Park
(37.7711°N, 100.0276°W)
Time: 17:58:43
(UTC+00:00)

Cosmos 1898 Rocket - Pass Details

Date: 10 July 2022
Orbit: 753 x 783 km, 74.0° (Epoch: 18 August)

Event Time Altitude Azimuth Distance (km) Brightness Sun altitude
Rises 06:47:48 0° 345° (NNW) 3,212 7.8 -30.0°
Reaches altitude 10° 06:50:13 10° 350° (N) 2,284 6.8 -30.0°
Enters shadow 06:54:40 54° 37° (NE) 916 4.0 -30.0°
